Location: Unspecified
(0.0000°N, 0.0000°E)
Time: 05:37:20
(UTC+00:00)

Tiros 1 despin weight - Pass Details

Date: 02 October 2020
Orbit: 594 x 641 km, 48.2° (Epoch: 28 October)

Event Time Altitude Azimuth Distance (km) Brightness Sun altitude
Rises 18:30:36 0° 332° (NNW) 2,917 ? -10.3°
Reaches altitude 10° 18:33:00 10° 339° (NNW) 2,015 ? -10.9°
Maximum altitude 18:37:26 44° 51° (NE) 878 ? -12.0°
Enters shadow 18:41:16 13° 121° (ESE) 1,802 ? -13.0°
Drops below altitude 10° 18:41:53 10° 123° (ESE) 2,026 - -13.2°
Sets 18:44:18 0° 130° (SE) 2,934 - -13.8°
